Home   Weather   Caledon   Past weeks
Flag for Canada

Past Weather in Caledon, Ontario, Canada — Yesterday and Last 2 Weeks

Now
41 °F

Overcast.


Feels Like: 35 °F
Forecast: 47 / 39 °F
Wind: 9 mph from North

Location: Borden

Current Time: Apr 19, 2019 at 8:28:40 pm

Latest Report: Apr 19, 2019 at 7:00 pm


Visibility: 9 mi

Pressure: 29.76 "Hg

Humidity: 100%

Dew Point: 41 °F

Location of CaledonLocation

Past Weather in Caledon — Graph

°F

Caledon Temperature Yesterday

Maximum temperature yesterday: 70 °F (at 12:00 pm)
Minimum temperature yesterday: 41 °F (at 12:21 am)
Average temperature yesterday: 56 °F

High & Low Weather Summary for the Past Weeks

 TemperatureHumidityPressure
High70 °F (Apr 18, 12:00 pm)100% (Apr 6, 12:00 am)30.53 "Hg (Apr 6, 12:00 am)
Low19 °F (Apr 5, 12:00 am)27% (Apr 17, 5:00 pm)29.34 "Hg (Apr 15, 2:08 am)
Average40 °F82%29.89 "Hg
* Reported Apr 4 7:00 pm — Apr 19 7:00 pm, Caledon. Weather by CustomWeather, © 2019

Note: Actual official high and low records may vary slightly from our data, if they occured in-between our weather recording intervals... More about our weather records

Advertising

Caledon Weather History for the Previous 24 Hours

Scroll right to see more
 ConditionsComfort  
Time TempWeatherWind HumidityBarometerVisibility
7:00 pm
Fri, Apr 19
41 °FOvercast.9 mph100%29.76 "Hg9 mi
6:37 pm41 °FOvercast.9 mph100%29.75 "Hg9 mi
6:21 pm41 °FLow clouds.8 mph100%29.74 "Hg9 mi
5:55 pm41 °FOvercast.8 mph100%29.74 "Hg9 mi
5:05 pm43 °FLow clouds.7 mph100%29.72 "Hg9 mi
4:40 pm41 °FLight rain. Low clouds.8 mph100%29.71 "Hg9 mi
4:16 pm41 °FLow clouds.8 mph100%29.71 "Hg9 mi
3:00 pm41 °FLow clouds.7 mph100%29.72 "Hg9 mi
2:36 pm43 °FLow clouds.6 mph100%29.70 "Hg9 mi
2:09 pm41 °FDrizzle. Low clouds.8 mph100%29.69 "Hg5 mi
2:01 pm41 °FDrizzle. Low clouds.6 mph100%29.69 "Hg4 mi
1:26 pm41 °FDrizzle. Low clouds.7 mph100%29.70 "Hg8 mi
1:18 pm39 °FDrizzle. Low clouds.10 mph100%29.70 "Hg8 mi
1:00 pm39 °FLight rain. Low clouds.10 mph100%29.71 "Hg5 mi
12:58 pm41 °FLight rain. Low clouds.9 mph100%29.69 "Hg5 mi
12:27 pm41 °FLight rain. Low clouds.7 mph100%29.69 "Hg6 mi
12:00 pm41 °FLight rain. Low clouds.8 mph100%29.69 "Hg7 mi
11:49 am41 °FLight rain. Low clouds.5 mph100%29.68 "Hg8 mi
11:40 am41 °FLight rain. Low clouds.7 mph100%29.67 "Hg8 mi
11:05 am39 °FLight rain. Light fog.12 mph100%29.66 "Hg4 mi
10:47 am39 °FLight rain. Low clouds.9 mph100%29.67 "Hg7 mi
10:00 am41 °FRain. Low clouds.7 mph100%29.67 "Hg5 mi
9:37 am41 °FRain. Low clouds.7 mph100%29.64 "Hg5 mi
9:23 am41 °FRain. Low clouds.8 mph100%29.63 "Hg4 mi
9:00 am41 °FLight rain. Low clouds.7 mph100%29.63 "Hg6 mi
8:29 am39 °FLight rain. Low clouds.7 mph100%29.61 "Hg6 mi
8:00 am39 °FRain. Low clouds.6 mph100%29.64 "Hg4 mi
7:33 am41 °FLight rain. Low clouds.5 mph100%29.62 "Hg9 mi
7:08 am41 °FLow clouds.7 mph100%29.61 "Hg9 mi
6:37 am41 °FLight rain. Low clouds.6 mph100%29.62 "Hg9 mi
6:15 am43 °FLow clouds.6 mph100%29.60 "Hg9 mi
6:00 am43 °FLight rain. Low clouds.7 mph100%29.62 "Hg9 mi
5:17 am43 °FLight rain. Mostly cloudy.6 mph100%29.61 "Hg6 mi
5:10 am43 °FLight rain. Partly cloudy.3 mph100%29.62 "Hg6 mi
4:25 am43 °FLight rain. Low clouds.2 mph100%29.60 "Hg4 mi
4:00 am43 °FLight rain. Low clouds.3 mph100%29.59 "Hg4 mi
3:40 am43 °FLight rain. Low clouds.No wind100%29.60 "Hg7 mi
3:00 am43 °FLight rain. Low clouds.6 mph100%29.59 "Hg6 mi
2:39 am43 °FLight rain. Low clouds.8 mph100%29.59 "Hg7 mi
2:03 am43 °FLight rain. Low clouds.9 mph100%29.61 "Hg6 mi
1:40 am52 °FLight rain. Mostly cloudy.14 mph100%29.60 "Hg9 mi
1:00 am52 °FLight rain. Overcast.No wind100%29.58 "Hg9 mi
12:00 am52 °FLight rain. Overcast.No wind100%29.58 "Hg9 mi
11:45 pm
Thu, Apr 18
52 °FOvercast.No wind100%29.58 "Hg9 mi
11:00 pm52 °FLight rain. Overcast.3 mph100%29.60 "Hg9 mi
10:35 pm52 °FLight rain. Mostly cloudy.2 mph100%29.60 "Hg9 mi
10:17 pm54 °FLight rain. Mostly cloudy.No wind100%29.59 "Hg9 mi
10:00 pm54 °FLight rain. Overcast.3 mph100%29.59 "Hg9 mi
9:19 pm54 °FLight rain. Mostly cloudy.8 mph94%29.58 "Hg9 mi
9:00 pm55 °FLight rain. Low clouds.12 mph88%29.57 "Hg9 mi
8:00 pm63 °FPartly sunny.10 mph88%29.52 "Hg9 mi
Weather by CustomWeather, © 2019

See weather overview